{"data":{"norad_id":59394,"intl_designator":"2024-062W","name":"STARLINK-31607","alt_names":[],"object_type":"PAYLOAD","status":"ACTIVE","operator":null,"country":"US","launch_date":"2024-04-02","launch_site_code":"AFWTR","launch_vehicle":null,"mission":null,"orbit_class":"UNKNOWN","rcs_meters":null,"size_class":null,"mass_kg":null,"dimensions":null,"purposes":["comms"],"wikipedia_slug":null,"has_3d_model":false,"image_url":null,"decayed_at":null,"tle_current":{"epoch":"2026-05-25T01:14:17.117664Z","epoch_age_seconds":70561,"freshness":"FRESH","line1":"1 59394U 24062W   26145.05158701  .00002836  00000+0  10790-3 0  9997","line2":"2 59394  53.1613 260.9058 0001336  85.4005 274.7149 15.30181323121359","mean_motion":15.30181323,"eccentricity":0.0001336,"inclination_deg":53.1613,"raan_deg":260.9058,"arg_perigee_deg":85.4005,"mean_anomaly_deg":274.7149,"bstar":0.0001079,"rev_number":12135,"period_min":94.10649433211,"perigee_km":474.35522085509,"apogee_km":476.1864514289,"semimajor_km":6853.407836142,"source":"CELESTRAK","updated_at":"2026-05-25T13:38:18.938133Z"}}}